Regional Weather Roundup
Issued by NWS Grand Forks, ND

Home | Current Version | Previous Version | Graphics & Text | Print | Product List | Glossary On
Versions: 1 2 3 4 5 6 7 8 9 10 11 12 13 14 15 16 17 18 19 20 21 22 23 24 25 26 27 28 29 30 31 32 33 34 35 36 37 38 39 40 41 42 43 44 45 46 47 48 49 50
000
ASUS43 KFGF 181131
RWRFGF
PRAIRIE TO PINES  WEATHER ROUNDUP
NATIONAL WEATHER SERVICE EASTERN NORTH DAKOTA/GRAND FORKS ND
500 AM CST THU DEC 18 2014

 **SATELLITE DATA USED TO AUGMENT SKY COVER AT AUTOMATED STATIONS**
 *****  WEATHER ACROSS EASTERN NORTH DAKOTA  *****

CITY           SKY/WX    TMP DP  RH WIND       PRES   REMARKS
GRAND FORKS    PTCLDY     4   1  88 SE3       30.27F
GRAND FRKS AFB PTCLDY     1  -1  91 SE1       30.26F
DEVILS LAKE    PTCLDY     9   0  66 SE8       30.15F WCI  -4
FARGO          PTCLDY     9   5  84 SE3       30.27F
WAHPETON ARPT  MOSUNNY    7   3  85 CALM      30.27F
$$

 ***** WEATHER ACROSS CENTRAL AND WESTERN NORTH DAKOTA  *****

CITY           SKY/WX    TMP DP  RH WIND       PRES   REMARKS
BISMARCK       CLOUDY    16  14  92 SE9       30.11F WCI   4
MINOT          FLURRIES  14  10  84 SE5       30.08F WCI   6
JAMESTOWN      FLURRIES  13   9  84 SE7       30.17F WCI   3
MINOT AFB      FLURRIES  14  14 100 SE6       30.06F WCI   5
GARRISON         N/A     18  15  88 S10       30.06F WCI   6
WILLISTON      CLOUDY    21  17  84 S7        30.01F WCI  12
DICKINSON      CLOUDY    20  17  88 S9        29.97F FOG     WCI   9
HETTINGER      CLOUDY    20  17  88 S7        29.98F FOG     WCI  11
$$

 *****  OTHER AIRPORT OBSERVATIONS IN OUR AREA  *****

CITY           SKY/WX    TMP DP  RH WIND       PRES   REMARKS
WALHALLA         N/A      5   5 100 CALM      30.25S
GRAFTON AIRPOR NOT AVBL
VALLEY CITY AR CLOUDY    10  10 100 SE3       30.20F
CANDO          FAIR       3   0  85 SE8       30.16F WCI -10
CAVALIER APRT  FAIR       5   1  85 CALM      30.25F
GWINNER        MOSUNNY   14  12  92 MISG      30.22F
SHEYENNE NWR     N/A      5   1  85 CALM      29.95S
ROLLA          FAIR       3   1  92 S8        30.12F WCI -10
 ***** THE ABOVE OBSERVATIONS ARE NON NWS ARE NOT QUALITY
       CONTROLLED AND MAY MIS-REPORT RAIN FOR SNOW...
$$

  *****  WEATHER ACROSS NORTHERN MINNESOTA  *****

CITY           SKY/WX    TMP DP  RH WIND       PRES   REMARKS
FLAG ISLAND    PTCLDY     7   3  85 CALM      30.28F
WARROAD        PTCLDY     5   1  85 CALM      30.27F
ROSEAU         PTCLDY     5   0  78 CALM      30.27F
HALLOCK        PTCLDY     7   3  85 SE5       30.27F WCI  -2
THF RVR FALLS  PTCLDY     9   5  85 SE6       30.25F WCI  -1
BAUDETTE       MOCLDY     5   0  79 CALM      30.28F
WASKISH        MOCLDY     1   0  92 CALM      30.27F
CROOKSTON      PTCLDY     7   3  85 SE5       30.28F WCI  -2
STEPHEN NDAWN    N/A      3   1  92 SE3         N/A
GREENBUSH NDAW   N/A      7   3  85 E3          N/A
$$
  *****  WEATHER ACROSS CENTRAL AND WEST MINNESOTA  *****

CITY           SKY/WX    TMP DP  RH WIND       PRES   REMARKS
FOSSTON        CLEAR      3   1  92 CALM      30.25F
BEMIDJI        PTCLDY     1  -2  85 CALM      30.25F
PARK RAPIDS    PTCLDY     2  -2  83 CALM      30.24S
ELBOW LAKE     FAIR       9   6  91 SE6       30.26S WCI  -1
WADENA         PTCLDY     1   0  92 CALM      30.25S
DETROIT LAKES  PTCLDY     9   9 100 SE5       30.25F WCI   0
MOORHEAD       CLEAR      7   7 100 CALM      30.27F
FERGUS FALLS   PTCLDY     9   5  85 SE7       30.30S WCI  -3
MORRIS MN      PTCLDY     5   1  85 SE5       30.25F WCI  -4
STAPLES        PTCLDY     1   0  92 CALM      30.26S
$$
  *****  WEATHER ELSEWHERE ACROSS MINNESOTA  *****

CITY           SKY/WX    TMP DP  RH WIND       PRES   REMARKS
DULUTH         FLURRIES  18  13  80 N6        30.27F WCI  10
INTRNTL FALLS  PTCLDY     3  -1  83 E6        30.29F WCI  -8
ELY            CLOUDY     3   1  92 CALM      30.29F
CLOQUET        CLOUDY    18  14  86 N3        30.27F
WHEATON        MOCLDY     0  -2  92 E3        30.27F
BRAINERD       MOCLDY     0  -4  83 CALM      30.29F
HIBBING        CLOUDY    14   9  80 CALM      30.28F
ALEXANDRIA     CLEAR      9   6  88 SE6       30.25F WCI  -1
SAINT CLOUD    MOCLDY    11   5  77 CALM      30.29F
MINNEAPOLIS    PTCLDY    12   8  84 N5        30.30F WCI   4
$$

  *****  WEATHER ACROSS SOUTH DAKOTA  *****

CITY           SKY/WX    TMP DP  RH WIND       PRES   REMARKS
SIOUX FALLS    CLOUDY    18  14  84 E7        30.21F WCI   9
BROOKINGS      NOT AVBL
WATERTOWN      CLOUDY    14   9  80 SE6       30.17F WCI   5
HURON          CLOUDY    18  14  84 SE6       30.20F WCI  10
SISSETON         N/A      6   3  87 SE5       30.23F WCI  -3
ABERDEEN       CLOUDY    17  12  80 S6        30.20F WCI   9
MITCHELL       CLOUDY    21  17  84 SE5       30.21S WCI  15
PIERRE         CLOUDY    20  19  96 SE9       30.11S WCI   9
MOBRIDGE       CLOUDY    19  17  92 SE9       30.08F FOG     WCI   8
RAPID CITY     CLOUDY    22  20  92 S6        29.99F WCI  14
$$

  *****  SOME WEATHER IN NEARBY STATES *****

CITY           SKY/WX    TMP DP  RH WIND       PRES   REMARKS
GLASGOW MT     CLOUDY    23  20  88 E9        29.94F WCI  13
GREAT FALLS MT CLOUDY    34  25  69 S13       29.89R WCI  25
CHEYENNE WY    CLEAR     23  15  71 W3        29.97S
SCOTTSBLUFF NE FOG        9   7  92 W6        30.02S VSB 3/4 WCI  -1
OMAHA NE       CLOUDY    27  20  75 SE6       30.24F WCI  20
DES MOINES IA  CLOUDY    23  16  74 NE9       30.27F WCI  13
DAVENPORT IA   PTCLDY    14  10  84 N6        30.28F WCI   5
CHICAGO IL     PTCLDY    20  14  77 NW6       30.27S WCI  12
EAU CLAIRE WI  CLOUDY    21  17  84 CALM      30.29F
LA CROSSE WI   CLOUDY    21  14  74 N5        30.30F WCI  15
$$

  *****  SOME NATIONAL WEATHER *****

CITY           SKY/WX    TMP DP  RH WIND       PRES   REMARKS
LA GUARDIA NY  FAIR      38  24  57 NW16G25   29.93R
RALEIGH NC     FAIR      33  27  78 CALM      30.14R
ATLANTA GA     MOCLDY    37  31  78 NW10      30.12R
NEW ORLEANS LA MOCLDY    52  46  80 E5        30.16F
OKLAHOMA CITY  DRIZZLE   39  37  93 S5        30.10S FOG
ALBUQUERQUE NM PTCLDY    30  28  92 E6        30.13S WCI  24
SALT LAKE CITY MOCLDY    32  29  88 SE6       30.07S
LOS ANGELES CA MOCLDY    51  45  79 E5        30.12S
BOISE ID       CLOUDY    35  32  88 N3        30.05R
SEATTLE WA     DRIZZLE   45  43  93 S8        29.95R FOG
$$

*** WEATHER ACROSS MANITOBA...SASKATCHEWAN AND ONTARIO ***
                ***ONTARIO***

CITY           SKY/WX    TMP DP  RH WIND       PRES   REMARKS
GERALDTON      CLEAR    -13 -18  77 W3        30.30S
THUNDER BAY    CLEAR     -4  -8  84 SW5       30.39R WCI -15
SIOUX LOOKOUT  CLEAR    -15 -20  76 S3        30.32
TORONTO        CLOUDY    30  27  86 NW15      30.06R WCI  19
BIG TROUT LK   CLEAR     -6  -9  84 SW5       30.24S WCI -17
PICKLE LAKE    CLEAR     -4  -9  77 S7        30.28  WCI -18
DRYDEN         CLEAR     -6 -11  77 E3        30.30F
KENORA         CLEAR      3  -2  78 S6        30.27  WCI  -8
$$
                *** MANITOBA***

CITY           SKY/WX    TMP DP  RH WIND       PRES   REMARKS
BRANDON        CLEAR     -4  -8  84 E6        30.16F WCI -16
DAUPHIN        CLEAR      0  -2  92 VRB2      30.15F
ISLAND LAKE    CLEAR     -6 -11  77 S3        30.22S
PILOT MOUND      N/A      0  -4  85 SE8         N/A  WCI -15
THE PAS        FLURRIES   7   3  85 SE6       30.07F WCI  -3
THOMPSON       FLURRIES   3   0  85 S6        30.08S WCI  -8
WINNIPEG       PTCLDY     5   1  85 S7        30.28S WCI  -7
LYNN LAKE      FLURRIES  14  12  92 SW6       29.96F WCI   5
CHURCHILL      CLEAR      5   1  85 W9        30.02S WCI  -9
GILLAM         PTCLDY     1  -2  85 SW8       30.10F WCI -12
$$
                ***SASKATCHEWAN***

CITY           SKY/WX    TMP DP  RH WIND       PRES   REMARKS
ESTEVAN        FLURRIES  18  14  86 SE8       30.02F WCI   7
KINDERSLEY     FOG       18  16  93 W6        29.85F VSB 3/8 WCI   9
LLOYDMINSTER   CLOUDY    18  16  93 SW3       29.84F FOG
PRINCE ALBERT  FLURRIES  18  16  93 S7        29.96F WCI   8
REGINA         CLOUDY    18  18 100 S12       29.98F WCI   5
YORKTON        FLURRIES  16  12  86 S10       30.04F WCI   3
N. BATTLEFORD  CLOUDY    19  19 100 SE6       29.91S WCI  11
LA RONGE       CLOUDY    16  14  93 S5        29.95S WCI   9
SASKATOON      LGT SNOW  21  19  93 S10       29.93F FOG     WCI  10
SWIFT CURRENT  CLEAR     21  21 100 SW14      29.85F WCI   8
$$
NOTE: THESE ARE AUTOMATED STATIONS WITH LIMITED QUALITY CONTROL
      "FAIR" INDICATES FEW OR NO CLOUDS BELOW 12,000 FEET WITH NO
      SIGNIFICANT WEATHER AND/OR OBSTRUCTIONS TO VISIBILITY.
      SKY/WX - SKY CONDITION AND SIGNIFICANT WEATHER.
      TMP - AIR TEMPERATURE.    DP   - DEWPOINT TEMPERATURE.
      RH  - RELATIVE HUMIDITY.  PRES - PRESSURE.
      HX  - HEAT INDEX.         WCI  - WIND CHILL INDEX.
$


USA.gov is the U.S. government's official web portal to all federal, state and local government web resources and services.